Flag for Central African Republic Weather past 2 weeks in Bimbo, Central African Republic

Now
70 °F

Fog.


Feels Like: 70 °F
Forecast: 71 / 82 °F
Wind: 1 mph from Southwest

Location: Bangui Airport

Current Time: Aug 28, 2014 at 6:23:51 AM

Latest Report: Aug 28, 2014 at 6:00 AM


Visibility: 0 mi

Pressure: 29.92 "Hg

Humidity: 100%

Dew point: 70 °F

Location of BimboLocation

Historic Weather in Bimbo — Graph

°F

Bimbo temperature yesterday

Maximum temperature yesterday: 77 °F (at 3:00 PM)
Minimum temperature yesterday: 70 °F (at 8:00 AM)
Average temperature yesterday: 74 °F

Past Weeks' High & Low Weather Summary

 TemperatureHumidityPressure
High93 °F (Aug 16, 2:00 PM)100% (Aug 13, 5:00 AM)30.04 "Hg (Aug 13, 5:00 AM)
Low68 °F (Aug 14, 3:00 AM)49% (Aug 16, 2:00 PM)29.74 "Hg (Aug 17, 4:00 PM)
Average76 °F87%29.91 "Hg
* Reported Aug 13 5:00 AM — Aug 28 5:00 AM, Bimbo, Weather by CustomWeather, © 2014

Note: Actual official high and low records may vary slightly from our data, if they occured in-between our weather recording intervals... More about our weather records

Advertising

Bimbo weather history for previous 24 hours

 ConditionsComfort  
Time TempWeatherWind HumidityBarometerVisibility
5:00 AM
Aug 28
70 °FPassing clouds.No wind100%29.89 "Hg4 mi
4:00 AM70 °FFog.No wind100%29.89 "Hg2 mi
3:00 AM70 °FFog.No wind100%29.89 "Hg1 mi
2:00 AM70 °FPassing clouds.No wind100%29.89 "Hg4 mi
1:00 AM70 °FPartly cloudy.1 mph100%29.92 "Hg4 mi
12:00 AM70 °FPartly cloudy.1 mph100%29.92 "Hg4 mi
11:00 PM
Aug 27
72 °FPassing clouds.1 mph100%29.92 "Hg4 mi
10:00 PM72 °FPassing clouds.No wind100%29.95 "Hg4 mi
9:00 PM72 °FPassing clouds.No wind100%29.92 "Hg4 mi
8:00 PM72 °FPassing clouds.3 mph100%29.89 "Hg4 mi
7:00 PM73 °FPassing clouds.2 mph94%29.86 "Hg4 mi
6:00 PM75 °FMostly cloudy.3 mph89%29.86 "Hg5 mi
5:00 PM77 °FLight rain. More clouds than sun.2 mph83%29.86 "HgN/A
4:00 PM75 °FLight rain. More clouds than sun.5 mph94%29.86 "HgN/A
3:00 PM77 °FMore clouds than sun.3 mph83%29.86 "HgN/A
2:00 PM75 °FLight rain. More clouds than sun.6 mph89%29.86 "HgN/A
1:00 PM75 °FLight rain. More clouds than sun.5 mph89%29.92 "HgN/A
12:00 PM73 °FLight rain. More clouds than sun.1 mph94%29.95 "HgN/A
11:00 AM73 °FLight rain. Overcast.1 mph94%29.98 "HgN/A
10:00 AM72 °FThunderstorms. More clouds than sun.2 mph94%30.01 "Hg5 mi
9:00 AM70 °FThunderstorms. More clouds than sun.3 mph100%30.01 "Hg4 mi
8:00 AM70 °FThunderstorms. More clouds than sun.15 mph100%30.04 "Hg4 mi
7:00 AM72 °FThunderstorms. More clouds than sun.6 mph100%29.98 "Hg4 mi
6:00 AM73 °FThunderstorms. More clouds than sun.5 mph94%29.92 "Hg4 mi
Weather by CustomWeather, © 2014

See weather overviewHow to use our weather pages